Location: Unspecified
(40.7945°N, 111.1337°W)
Time: 14:04:53
(UTC-06:00)

Cosmos 2058 - Visible Passes

Search period start: 25 May 2017 00:00
Search period end: 04 June 2017 00:00
Orbit: 563 x 586 km, 82.5° (Epoch: 24 May)

Date Brightness Start Highest point End Pass type
(mag) Time Alt. Az. Time Alt. Az. Time Alt. Az.
25 May 4.2 02:57:56 29° ESE 02:58:31 30° E 03:02:08 10° NNE visible
25 May 4.5 04:34:10 16° W 04:35:30 19° WNW 04:38:28 10° NNW visible
26 May 3.7 03:01:26 40° ESE 03:01:50 41° E 03:05:42 10° NNE visible
26 May 4.9 04:37:40 13° W 04:39:00 14° WNW 04:41:17 10° NW visible
27 May 3.2 03:04:55 55° ESE 03:05:10 56° E 03:09:12 10° NNE visible
27 May 5.1 04:41:23 10° W 04:42:30 11° WNW 04:43:36 10° NW visible
28 May 2.8 03:08:23 77° ESE 03:08:30 78° E 03:12:38 10° N visible
29 May 2.7 03:11:50 76° W 03:11:53 77° W 03:16:01 10° N visible
30 May 5.6 01:39:02 10° E 01:39:02 10° E 01:39:39 10° ENE visible
30 May 3.1 03:15:16 55° W 03:15:16 55° W 03:19:20 10° N visible
31 May 5.3 01:42:27 14° E 01:42:27 14° E 01:44:20 10° NE visible
31 May 3.5 03:18:41 40° WNW 03:18:41 40° WNW 03:22:35 10° N visible
01 Jun 5.0 01:45:52 18° ENE 01:45:52 18° ENE 01:48:19 10° NE visible
01 Jun 4.0 03:22:05 30° WNW 03:22:06 30° WNW 03:25:47 10° NNW visible
02 Jun 4.7 01:49:16 24° ENE 01:49:16 24° ENE 01:52:05 10° NE visible
02 Jun 4.4 03:25:29 23° WNW 03:25:33 23° WNW 03:28:53 10° NNW visible
03 Jun 4.3 01:52:38 31° ENE 01:52:38 31° ENE 01:55:43 10° NNE visible
03 Jun 4.8 03:28:52 18° WNW 03:29:01 18° WNW 03:31:51 10° NNW visible
